Weather History for Rayong, Thailand

Change the Weather History Date:

Wednesday, April 24, 2013

  Actual Average Record
Temperature  
Mean Temperature 82 °F -  
Max Temperature 87 °F 89 °F 96 °F (2004)
Min Temperature 78 °F 78 °F 78 °F (2003)
Cooling Degree Days 18    
Growing Degree Days 32 (Base 50)    
Moisture  
Dew Point 76 °F    
Average Humidity 78    
Maximum Humidity 89    
Minimum Humidity 66    
Precipitation  
Precipitation 0.00 in 0.23 in - ()
Sea Level Pressure  
Sea Level Pressure 29.83 in    
Wind  
Wind Speed 3 mph ()    
Max Wind Speed 9 mph    
Max Gust Speed -    
Visibility 4.6 miles    
Events Rain , Thunderstorm    
Averages and records for this station are not official NWS values.
T = Trace of Precipitation, MM = Missing Value Source: Averaged Metar Reports

Daily Weather History Graph

Daily Weather History Graph

Search for Another Location

Airport:

Trip Planner

Search our weather history database for the weather conditions in past years. The results will help you decide how hot, cold, wet, or windy it might be!

Date:

Astronomy

Apr. 24, 2013 Rise Set
Actual Time 5:58 AM ICT 6:29 PM ICT
Civil Twilight 5:37 AM ICT 6:51 PM ICT
Nautical Twilight 5:11 AM ICT 7:16 PM ICT
Astronomical Twilight 4:45 AM ICT 7:42 PM ICT
Moon 5:07 PM ICT (4/24) 4:26 AM ICT (4/24)
Length of Visible Light 13h 14m
Length of Day
12h 30m
Waxing Gibbous, 96% of the Moon is Illuminated
Apr 24
Waxing Gibbous
Apr 26
Full
May 2
Last Quarter
May 10
New
May 18
First Quarter

Hourly Weather History & Observations

Time (ICT) Temp. Heat Index Dew Point Humidity Pressure Visibility Wind Dir Wind Speed Gust Speed Precip Events Conditions
12:00 AM 78.8 °F - 73.4 °F 83% 29.86 in 3.7 mi Calm Calm - N/A   Mostly Cloudy
7:00 AM 78.8 °F - 75.2 °F 89% 29.86 in 3.1 mi Calm Calm - N/A   Mostly Cloudy
7:30 AM 80.6 °F 86.2 °F 75.2 °F 84% 29.86 in 2.5 mi Calm Calm - N/A   Mostly Cloudy
8:00 AM 82.4 °F 90.9 °F 77.0 °F 84% 29.89 in 2.5 mi Calm Calm - N/A Thunderstorm Thunderstorm
8:30 AM 84.2 °F 94.1 °F 77.0 °F 79% 29.89 in 2.5 mi NNE 3.5 mph - N/A Thunderstorm Thunderstorm
10:00 AM 86.0 °F 95.1 °F 75.2 °F 70% 29.92 in 3.1 mi WSW 6.9 mph - N/A Thunderstorm Thunderstorm
10:30 AM 84.2 °F 92.3 °F 75.2 °F 74% 29.92 in 3.1 mi SW 9.2 mph - N/A Thunderstorm Thunderstorm
11:00 AM 80.6 °F 85.4 °F 73.4 °F 79% 29.89 in 2.5 mi SW 6.9 mph - N/A Rain , Thunderstorm Light Thunderstorms and Rain
11:30 AM 80.6 °F 85.4 °F 73.4 °F 79% 29.89 in 2.5 mi SW 4.6 mph - N/A Thunderstorm Thunderstorm
12:00 PM 84.2 °F 92.3 °F 75.2 °F 74% 29.89 in 3.1 mi SW 4.6 mph - N/A Thunderstorm Thunderstorm
12:30 PM 84.2 °F 90.9 °F 73.4 °F 70% 29.86 in 3.7 mi WSW 4.6 mph - N/A Thunderstorm Thunderstorm
1:00 PM 84.2 °F 94.1 °F 77.0 °F 79% 29.86 in 3.7 mi South 6.9 mph - N/A Thunderstorm Thunderstorm
1:30 PM 84.2 °F 92.3 °F 75.2 °F 74% 29.83 in 3.7 mi SSW 4.6 mph - N/A   Mostly Cloudy
2:00 PM 86.0 °F 95.1 °F 75.2 °F 70% 29.80 in 4.3 mi SSW 4.6 mph - N/A   Mostly Cloudy
2:30 PM 86.0 °F 95.1 °F 75.2 °F 70% 29.80 in 4.3 mi WSW 6.9 mph - N/A   Mostly Cloudy
3:00 PM 86.0 °F 95.1 °F 75.2 °F 70% 29.80 in 4.3 mi Calm Calm - N/A   Mostly Cloudy
3:30 PM 87.8 °F 102.5 °F 78.8 °F 75% 29.77 in 4.3 mi SW 6.9 mph - N/A   Mostly Cloudy
4:00 PM 87.8 °F 97.6 °F 75.2 °F 66% 29.74 in 5.0 mi WSW 6.9 mph - N/A   Mostly Cloudy
4:30 PM 87.8 °F 99.7 °F 77.0 °F 70% 29.74 in 5.0 mi SW 6.9 mph - N/A   Mostly Cloudy
5:00 PM 87.8 °F 99.7 °F 77.0 °F 70% 29.74 in 5.0 mi SW 6.9 mph - N/A   Mostly Cloudy
5:30 PM 87.8 °F 99.7 °F 77.0 °F 70% 29.77 in 6.2 mi SW 4.6 mph - N/A   Mostly Cloudy
6:00 PM 86.0 °F 96.9 °F 77.0 °F 74% 29.77 in 6.2 mi SW 3.5 mph - N/A   Mostly Cloudy
6:30 PM 84.2 °F 94.1 °F 77.0 °F 79% 29.77 in 6.2 mi Calm Calm - N/A   Mostly Cloudy
7:00 PM 84.2 °F 94.1 °F 77.0 °F 79% 29.77 in 6.2 mi SW 3.5 mph - N/A   Mostly Cloudy
7:30 PM 84.2 °F 94.1 °F 77.0 °F 79% 29.80 in 6.2 mi Calm Calm - N/A   Mostly Cloudy
8:00 PM 82.4 °F 90.9 °F 77.0 °F 84% 29.80 in 6.2 mi Calm Calm - N/A   Mostly Cloudy
8:30 PM 82.4 °F 90.9 °F 77.0 °F 84% 29.83 in 6.2 mi Calm Calm - N/A   Mostly Cloudy
9:00 PM 82.4 °F 90.9 °F 77.0 °F 84% 29.83 in 6.2 mi Calm Calm - N/A   Mostly Cloudy
9:30 PM 80.6 °F 87.1 °F 77.0 °F 89% 29.86 in 6.2 mi Calm Calm - N/A   Mostly Cloudy
10:00 PM 80.6 °F 86.2 °F 75.2 °F 84% 29.86 in 6.2 mi Calm Calm - N/A   Mostly Cloudy
10:30 PM 80.6 °F 87.1 °F 77.0 °F 89% 29.86 in 5.6 mi ESE 2.3 mph - N/A   Mostly Cloudy
11:00 PM 82.4 °F 89.5 °F 75.2 °F 79% 29.86 in 5.6 mi SE 2.3 mph - N/A   Mostly Cloudy
11:30 PM 80.6 °F 86.2 °F 75.2 °F 84% 29.86 in 5.6 mi Calm Calm - N/A   Mostly Cloudy